Location: Newark
(12.5331°N, 56.4669°W)
Time: 00:25:00
(UTC+00:00)

LightSail 2 - Pass Details

Date: 30 January 2020
Orbit: 699 x 722 km, 24.0° (Epoch: 21 February)

Event Time Altitude Azimuth Distance (km) Brightness Sun altitude
Rises 22:36:06 0° 291° (WNW) 3,065 9.4 -12.4°
Reaches altitude 10° 22:38:31 10° 290° (WNW) 2,150 8.5 -13.0°
Maximum altitude 22:43:36 84° 203° (SSW) 706 5.1 -14.2°
Enters shadow 22:47:47 15° 115° (ESE) 1,821 6.8 -15.2°
